BREEZE M DEB (TANK) - Orbit

View from above orbital plane
View from above orbital plane
View from above satellite
View from above satellite

Ground track
Ground track

The orbit data is extracted from the following two-line orbital elements,

1 28926U 05052C   13143.86412927  .00003175  00000-0  52011-3 0  8537
2 28926 049.5617 249.5022 5249110 299.8146 247.1325 05.21617810138700
Epoch (UTC): 23 May 2013 20:44:20
Eccentricity: 0.5249110
inclination: 49.5617°
perigee height: 294 km
apogee height: 15038 km
right ascension of ascending node: 249.5022°
argument of perigee: 299.8146°
revolutions per day: 5.21617810
mean anomaly at epoch: 247.1325°
orbit number at epoch: 13870

The dashed part of the orbit path shows where the satellite is in the earth's shadow,  

Developed and maintained by Chris Peat, Heavens-Above GmbH. Please read the updated FAQ before sending e-mail. Imprint. DLR